Location: East Guldeford
(50.9500°N, 0.7500°E)
Time: 18:16:55
(UTC+00:00)

OBJECT-B - Pass Details

Date: 12 May 2021
Orbit: 414 x 423 km, 97.0° (Epoch: 05 June)

Event Time Altitude Azimuth Distance (km) Brightness Sun altitude
Rises 20:31:25 0° 202° (SSW) 2,374 4.4 -7.8°
Reaches altitude 10° 20:33:50 10° 221° (SW) 1,516 3.6 -8.1°
Maximum altitude 20:36:11 18° 268° (W) 1,110 3.5 -8.4°
Drops below altitude 10° 20:38:33 10° 314° (NW) 1,527 5.3 -8.6°
Sets 20:41:01 0° 334° (NNW) 2,400 6.2 -8.9°
